Flag for Germany Weather past 2 weeks in Nürburg, Rhineland-Palatinate, Germany

Now
57 °F

Partly sunny.


Feels Like: 58 °F
Forecast: 34 / 47 °F
Wind: 3 mph from South

Location: Nuerburg-Barweiler


UV Index: 3 (Moderate)

Visibility: 34 mi


Pressure: 30.10 "Hg

Humidity: 34%

Dew point: 29 °F

Location of NürburgLocation

Historic Weather in Nürburg

°F

Nürburg temperature yesterday

Maximum temperature yesterday: 52 °F (at 5:00 PM)
Minimum temperature yesterday: 31 °F (at 7:00 AM)
Average temperature yesterday: 43 °F

Past Weeks' High & Low Weather Summary

 TemperatureHumidityPressure
High67 °F (Apr 3, 4:00 PM)100% (Apr 6, 6:00 AM)30.46 "Hg (Apr 6, 6:00 AM)
Low31 °F (Apr 16, 7:00 AM)32% (Apr 17, 2:00 PM)29.61 "Hg (Apr 3, 3:00 PM)
Average49 °F71%30.06 "Hg
* Reported Apr 2 3:00 PM — Apr 17 3:00 PM, Nürburg, Weather by CustomWeather, © 2014

Note: Actual official high and low records may vary slightly from our data, if they occured in-between our weather recording intervals... More about our weather records

Advertising

Historic Weather Conditions — Data for Previous 24 hours

 ConditionsComfort  
Time TempWeatherWind HumidityBarometerVisibility
3:00 PM
Apr 17
57 °FPartly sunny.3 mph34%30.10 "Hg34 mi
2:00 PM56 °FOvercast.3 mph32%30.12 "Hg31 mi
1:00 PM53 °FOvercast.5 mph34%30.17 "Hg37 mi
12:00 PM53 °FPartly sunny.3 mph41%30.20 "Hg37 mi
11:00 AM49 °FScattered clouds.3 mph45%30.24 "Hg37 mi
10:00 AM47 °FPassing clouds.2 mph52%30.25 "Hg37 mi
9:00 AM44 °FPassing clouds.3 mph58%30.27 "Hg40 mi
8:00 AM41 °FPassing clouds.3 mph60%30.29 "Hg40 mi
7:00 AM39 °FPassing clouds.2 mph63%30.31 "Hg37 mi
6:00 AM38 °FPassing clouds.2 mph68%30.32 "Hg37 mi
5:00 AMN/APassing clouds.7 mphN/AN/A19 mi
4:00 AM40 °FOvercast.3 mph64%30.32 "Hg43 mi
3:00 AM42 °FOvercast.3 mph60%30.34 "Hg43 mi
2:00 AM43 °FPassing clouds.2 mph58%30.35 "Hg43 mi
1:00 AM44 °FOvercast.3 mph56%30.36 "Hg43 mi
12:00 AM44 °FPassing clouds.3 mph56%30.37 "Hg40 mi
11:00 PM
Apr 16
45 °FPassing clouds.2 mph54%30.36 "Hg43 mi
10:00 PM46 °FClear.5 mph53%30.36 "Hg40 mi
9:00 PM47 °FPassing clouds.3 mph50%30.37 "Hg37 mi
8:00 PM50 °FSunny.3 mph44%30.35 "Hg37 mi
7:00 PM51 °FPassing clouds.3 mph40%30.35 "Hg37 mi
6:00 PM52 °FPassing clouds.5 mph41%30.35 "Hg37 mi
5:00 PM52 °FPassing clouds.3 mph39%30.35 "Hg37 mi
4:00 PM51 °FPassing clouds.5 mph41%30.38 "Hg37 mi
Weather by CustomWeather, © 2014

See weather overview